Station PLXA2 - 9451054 - Port Alexander, AK Image indicating link to RSS feed of recent meteorological observations for station PLXA2


Conditions at PLXA2 as of
(4:00 am AKDT)
1200 GMT on 04/19/2024:
     

Click on the graph icon in the table below to see a time series plot of the last five days of that observation.

5-day plot - Wind Direction Wind Direction (WDIR): N ( 350 deg true )
5-day plot - Wind Speed Wind Speed (WSPD): 8.0 kts
5-day plot - Wind Gust Wind Gust (GST): 12.0 kts
5-day plot - Atmospheric Pressure Atmospheric Pressure (PRES):30.31 in
5-day plot - Pressure Tendency Pressure Tendency (PTDY):-0.02 in ( Falling )
5-day plot - Air Temperature Air Temperature (ATMP): 48.9 °F
5-day plot - Water Temperature Water Temperature (WTMP): 46.6 °F
5-day plot - Wind Chill Wind Chill (CHILL): 45.0 °F
5-day plot - Wind Speed at 10 Meters Wind Speed at 10 meters (WSPD10M): 7.8 kts
5-day plot - Wind Speed at 20 Meters Wind Speed at 20 meters (WSPD20M): 7.8 kts
5-day plot -  Wind Speed, Wind Gust and Atmospheric Pressure Combined plot of Wind Speed, Gust, and Air Pressure
NOS Water Level Observation Network Water Level
Previous observations
TIME
(AKDT)
5-day plot - Wind Direction
WDIR
 
5-day plot - Wind Speed
WSPD
kts
5-day plot - Wind Gust
GST
kts
5-day plot - Wave Height
WVHT
ft
5-day plot - Dominant Wave Period
DPD
sec
5-day plot - Average Wave Period
APD
sec
5-day plot - Mean Wave Direction
MWD
 
5-day plot - Atmospheric Pressure
PRES
in
5-day plot - Pressure Tendency
PTDY
in
5-day plot - Air Temperature
ATMP
°F
5-day plot - Water Temperature
WTMP
°F
5-day plot - Dew Point
DEWP
°F
5-day plot - Salinity
SAL
psu
5-day plot - Visibility
VIS
nmi
5-day plot - Tide (above MLLW)
TIDE
ft
2024-04-19 03:54 am N 7.0 11.1----30.31- 49.1 46.6----
2024-04-19 03:48 am N 6.0 9.9----30.31- 49.5 46.6----
2024-04-19 03:42 am N 6.0 12.0----30.31- 49.6 46.6----
2024-04-19 03:36 am N 8.0 12.0----30.31- 49.8 46.6----
2024-04-19 03:30 am N 6.0 12.0----30.31- 49.6 46.6----
2024-04-19 03:24 am N 6.0 12.0----30.31- 49.8 46.6----
2024-04-19 03:18 am N 6.0 11.1----30.32- 49.8 46.6----
2024-04-19 03:12 am N 7.0 12.0----30.32- 50.2 46.6----
2024-04-19 03:06 am N 7.0 12.0----30.32- 50.2 46.6----
2024-04-19 03:00 am N 6.0 11.1----30.32-0.02 49.6 46.6----
2024-04-19 02:54 am N 6.0 12.0----30.32- 49.6 46.6----
2024-04-19 02:48 am N 5.1 13.0----30.32- 49.5 46.6----
2024-04-19 02:42 am N 7.0 12.0----30.32- 49.6 46.6----
2024-04-19 02:36 am N 5.1 8.9----30.32- 49.1 46.6----
2024-04-19 02:30 am N 6.0 9.9----30.32- 48.9 46.6----
2024-04-19 02:24 amNNW 8.9 12.0----30.32- 49.3 46.4----
2024-04-19 02:18 am N 7.0 9.9----30.32- 49.5 46.4----
2024-04-19 02:12 am N 8.0 12.0----30.32- 49.5 46.4----
2024-04-19 02:06 am N 8.0 14.0----30.32- 49.6 46.6----
2024-04-19 02:00 am N 8.0 12.0----30.32-0.02 49.8 46.4----
2024-04-19 01:54 am N 5.1 9.9----30.32- 49.8 46.4----
2024-04-19 01:48 am N 6.0 8.9----30.32- 49.8 46.4----
2024-04-19 01:42 am N 6.0 9.9----30.33- 49.6 46.4----
2024-04-19 01:36 am N 7.0 9.9----30.33- 49.8 46.4----
2024-04-19 01:30 am N 7.0 11.1----30.33- 49.6 46.4----
2024-04-19 01:24 amNNW 8.0 12.0----30.33- 49.3 46.4----
2024-04-19 01:18 am N 7.0 11.1----30.33- 49.5 46.2----
2024-04-19 01:12 am N 4.1 8.9----30.33- 49.3 46.2----
2024-04-19 01:06 am N 6.0 9.9----30.33- 49.5 46.0----
2024-04-19 01:00 amNNW 8.0 11.1----30.33-0.02 49.6 46.0----
2024-04-19 12:54 amNNW 5.1 11.1----30.33- 49.1 46.0----
2024-04-19 12:48 amNNW 5.1 8.9----30.33- 49.1 46.2----
2024-04-19 12:42 amNNW 5.1 7.0----30.33- 49.1 46.2----
2024-04-19 12:36 amNNW 5.1 8.0----30.33- 48.9 46.0----
2024-04-19 12:30 amNNW 6.0 9.9----30.33- 48.9 46.0----
2024-04-19 12:24 am N 7.0 11.1----30.33- 48.9 46.2----
2024-04-19 12:18 amNNW 7.0 11.1----30.33- 49.3 46.2----
2024-04-19 12:12 am N 5.1 8.0----30.33- 49.6 46.0----
2024-04-19 12:06 amNNW 6.0 8.9----30.33- 50.0 46.0----
2024-04-19 12:00 am N 7.0 9.9----30.34-0.01 50.5 46.0----
2024-04-18 11:54 pmNNW 7.0 9.9----30.34- 50.7 46.0----
2024-04-18 11:48 pm N 8.0 13.0----30.34- 50.9 46.0----
2024-04-18 11:42 pm N 6.0 13.0----30.34- 50.9 46.0----
2024-04-18 11:36 pmNNW 7.0 12.0----30.34- 51.1 46.0----
2024-04-18 11:30 pm N 5.1 9.9----30.34- 50.7 46.0----
2024-04-18 11:24 pm N 8.0 12.0----30.34- 51.1 46.0----
2024-04-18 11:18 pm N 8.0 13.0----30.34- 51.1 46.0----
2024-04-18 11:12 pm N 8.9 15.0----30.34- 51.3 46.0----
2024-04-18 11:06 pm N 8.0 14.0----30.35- 51.3 46.0----
2024-04-18 11:00 pm N 8.0 14.0----30.35+0.00 51.4 46.0----
2024-04-18 10:54 pm N 8.9 15.0----30.35- 51.6 46.0----
2024-04-18 10:48 pm N 8.9 14.0----30.35- 51.6 46.2----
2024-04-18 10:42 pmNNW 11.1 15.0----30.35- 51.8 46.2----
2024-04-18 10:36 pm N 8.0 14.0----30.35- 51.3 46.2----
2024-04-18 10:30 pm N 8.9 13.0----30.35- 51.4 46.2----
2024-04-18 10:24 pm N 9.9 15.0----30.35- 51.6 46.2----
2024-04-18 10:18 pm N 8.0 13.0----30.35- 51.4 46.2----
2024-04-18 10:12 pm N 8.9 15.0----30.35- 51.6 46.2----
2024-04-18 10:06 pm N 8.0 14.0----30.35- 51.8 46.2----
2024-04-18 10:00 pmNNW 8.0 15.0----30.35+0.00 51.6 46.2----
2024-04-18 09:54 pm N 5.1 11.1----30.35- 51.1 46.4----
2024-04-18 09:48 pmNNW 8.0 12.0----30.35- 51.3 46.4----
2024-04-18 09:42 pmNNW 7.0 11.1----30.35- 50.5 46.4----
2024-04-18 09:36 pmNNW 7.0 8.0----30.35- 50.2 46.6----
2024-04-18 09:30 pmNNW 6.0 7.0----30.35- 50.0 46.4----
2024-04-18 09:24 pmNNW 5.1 9.9----30.35- 49.8 46.6----
2024-04-18 09:18 pmNNW 7.0 9.9----30.35- 50.2 46.6----
2024-04-18 09:12 pmNNW 5.1 8.9----30.35- 50.0 46.6----
2024-04-18 09:06 pmNNW 6.0 8.9----30.35- 49.8 46.6----
2024-04-18 09:00 pmNNW 6.0 7.0----30.35-0.02 50.0 46.6----
2024-04-18 08:54 pmNNW 5.1 7.0----30.35- 50.5 46.8----
2024-04-18 08:48 pmNNW 5.1 8.9----30.35- 50.9 46.8----
2024-04-18 08:42 pmNNW 6.0 8.0----30.35- 51.4 46.8----
2024-04-18 08:36 pmNNW 6.0 8.9----30.35- 51.3 46.8----
2024-04-18 08:30 pm N 7.0 9.9----30.35- 51.6 46.9----
2024-04-18 08:24 pmNNW 6.0 8.9----30.35- 51.4 46.9----
2024-04-18 08:18 pmNNW 5.1 8.9----30.35- 51.6 46.9----
2024-04-18 08:12 pmNNW 6.0 8.9----30.35- 51.6 46.9----
2024-04-18 08:06 pmNNW 6.0 8.9----30.35- 52.0 46.9----
2024-04-18 08:00 pmNNW 7.0 11.1----30.35-0.05 52.2 46.9----
2024-04-18 07:54 pmNNW 7.0 9.9----30.35- 52.5 46.9----
2024-04-18 07:48 pmNNW 8.0 14.0----30.35- 52.5 46.9----
2024-04-18 07:42 pm N 7.0 12.0----30.35- 52.9 46.9----
2024-04-18 07:36 pm N 7.0 12.0----30.35- 53.1 46.9----
2024-04-18 07:30 pm N 6.0 12.0----30.35- 53.1 47.1----
2024-04-18 07:24 pm N 6.0 12.0----30.35- 53.2 47.1----
2024-04-18 07:18 pm N 8.0 12.0----30.35- 53.8 47.1----
2024-04-18 07:12 pm N 7.0 13.0----30.35- 54.5 47.1----
2024-04-18 07:06 pm N 6.0 13.0----30.35- 55.6 47.1----
2024-04-18 07:00 pm N 6.0 11.1----30.35-0.07 55.9 47.1----
2024-04-18 06:54 pm N 8.0 12.0----30.35- 56.3 47.1----
2024-04-18 06:48 pm N 7.0 12.0----30.36- 56.7 47.1----
2024-04-18 06:42 pm N 7.0 11.1----30.36- 56.7 47.1----
2024-04-18 06:36 pm N 7.0 11.1----30.36- 56.8 47.1----
2024-04-18 06:30 pm N 7.0 9.9----30.36- 57.0 47.1----
2024-04-18 06:24 pm N 7.0 11.1----30.36- 56.7 47.1----
2024-04-18 06:18 pm N 8.9 14.0----30.37- 56.5 47.1----
2024-04-18 06:12 pm N 8.0 15.0----30.37- 56.5 47.1----
2024-04-18 06:06 pm N 11.1 14.0----30.37- 56.3 47.1----
2024-04-18 06:00 pm N 8.0 12.0----30.37-0.07 56.5 47.3----
2024-04-18 05:54 pm N 8.0 13.0----30.37- 56.5 47.3----
2024-04-18 05:48 pm N 8.0 13.0----30.38- 56.7 47.3----
2024-04-18 05:42 pm N 8.0 15.0----30.38- 56.7 47.3----
2024-04-18 05:36 pm N 7.0 13.0----30.38- 56.8 47.3----
2024-04-18 05:30 pm N 8.9 12.0----30.39- 56.7 47.3----
2024-04-18 05:24 pm N 8.0 12.0----30.39- 56.7 47.3----
2024-04-18 05:18 pm N 9.9 14.0----30.39- 56.5 47.5----
2024-04-18 05:12 pm N 7.0 13.0----30.39- 56.7 47.5----
2024-04-18 05:06 pm N 7.0 12.0----30.40- 56.3 47.5----
2024-04-18 05:00 pm N 6.0 12.0----30.40-0.06 56.7 47.7----
2024-04-18 04:54 pm N 5.1 14.0----30.40- 57.0 47.7----
2024-04-18 04:48 pm N 7.0 12.0----30.40- 56.7 47.7----
2024-04-18 04:42 pm N 7.0 14.0----30.41- 56.5 47.7----
2024-04-18 04:36 pmNNE 5.1 11.1----30.41- 56.7 47.5----
2024-04-18 04:30 pm N 5.1 9.9----30.41- 56.8 47.5----
2024-04-18 04:24 pmNNE 6.0 9.9----30.41- 56.5 47.5----
2024-04-18 04:18 pm N 6.0 11.1----30.41- 56.7 47.5----
2024-04-18 04:12 pm N 4.1 9.9----30.42- 56.7 47.3----
2024-04-18 04:06 pm N 5.1 11.1----30.42- 56.8 47.5----
2024-04-18 04:00 pm N 6.0 12.0----30.42-0.05 56.1 47.5----
2024-04-18 03:54 pm N 6.0 13.0----30.42- 55.9 47.5----
2024-04-18 03:48 pm N 6.0 9.9----30.43- 55.8 47.5----
2024-04-18 03:42 pm N 6.0 12.0----30.43- 55.2 47.3----
2024-04-18 03:36 pm N 6.0 13.0----30.43- 54.7 47.3----
2024-04-18 03:30 pmNNW 8.0 14.0----30.44- 54.1 47.5----
2024-04-18 03:24 pm N 8.9 14.0----30.44- 54.1 47.5----
2024-04-18 03:18 pm N 6.0 13.0----30.44- 54.1 47.3----
2024-04-18 03:12 pm N 8.9 15.9----30.44- 53.6 47.3----
2024-04-18 03:06 pm N 8.0 15.0----30.44- 53.6 47.1----
2024-04-18 03:00 pm N 6.0 13.0----30.44-0.04 54.3 47.3----
2024-04-18 02:54 pm N 7.0 12.0----30.44- 54.0 47.1----
2024-04-18 02:48 pm N 5.1 12.0----30.44- 54.5 47.3----
2024-04-18 02:42 pm N 7.0 15.0----30.45- 53.4 47.3----
2024-04-18 02:36 pm N 6.0 9.9----30.45- 53.6 47.1----
2024-04-18 02:30 pmNNE 6.0 15.9----30.45- 53.2 47.1----
2024-04-18 02:24 pm N 6.0 15.9----30.45- 53.6 47.1----
2024-04-18 02:18 pmNNE 5.1 11.1----30.45- 53.1 47.1----
2024-04-18 02:12 pmNNE 6.0 15.0----30.45- 52.9 47.1----
2024-04-18 02:06 pmNNE 6.0 13.0----30.45- 53.1 46.9----
2024-04-18 02:00 pmNNE 6.0 11.1----30.45-0.05- 46.9----
2024-04-18 01:54 pm N 5.1 15.9----30.45-- 46.8----
2024-04-18 01:48 pm N 6.0 13.0----30.46- 53.2 46.8----
2024-04-18 01:42 pm N 7.0 15.0----30.46- 52.9 46.8----
2024-04-18 01:36 pm N 6.0 15.0----30.46- 52.9 46.8----
2024-04-18 01:30 pmNNE 5.1 18.1----30.46- 52.2 46.8----
2024-04-18 01:24 pm N 8.0 18.1----30.46- 52.0 46.6----
2024-04-18 01:18 pm N 8.0 17.1----30.46- 51.8 46.6----
2024-04-18 01:12 pm N 8.0 15.0----30.46- 51.6 46.4----
2024-04-18 01:06 pm N 8.0 15.9----30.47- 51.6 46.4----
2024-04-18 01:00 pm N 8.0 15.0----30.47-0.04 51.1 46.4----
2024-04-18 12:54 pm N 8.9 20.0----30.47- 51.1 46.4----
2024-04-18 12:48 pm N 9.9 18.1----30.47- 50.4 46.4----
2024-04-18 12:42 pm N 13.0 18.1----30.47- 50.0 46.2----
2024-04-18 12:36 pm N 8.9 15.0----30.47- 50.9 46.2----
2024-04-18 12:30 pm N 8.0 14.0----30.48- 50.4 46.0----
2024-04-18 12:24 pm N 11.1 20.0----30.48- 50.0 46.0----
2024-04-18 12:18 pm N 8.9 17.1----30.48- 50.0 46.0----
2024-04-18 12:12 pm N 11.1 18.1----30.49- 49.8 46.0----
2024-04-18 12:06 pm N 9.9 18.1----30.49- 49.5 46.0----
2024-04-18 12:00 pm N 9.9 15.9----30.49-0.03 49.5 46.0----
2024-04-18 11:54 am N 11.1 22.9----30.49- 49.3 46.0----
2024-04-18 11:48 am N 8.9 15.9----30.49- 48.9 46.0----
2024-04-18 11:42 am N 9.9 15.0----30.50- 48.7 46.0----
2024-04-18 11:36 am N 11.1 15.9----30.50- 48.2 46.0----
2024-04-18 11:30 am N 8.9 15.9----30.50- 48.4 46.0----
2024-04-18 11:24 am N 7.0 15.9----30.50- 48.6 46.0----
2024-04-18 11:18 am N 8.9 15.9----30.50- 48.6 45.9----
2024-04-18 11:12 am N 12.0 19.0----30.50- 48.2 46.0----
2024-04-18 11:06 am N 7.0 15.9----30.50- 48.4 46.0----
2024-04-18 11:00 am N 8.9 15.0----30.50-0.01 47.8 45.9----
2024-04-18 10:54 am N 11.1 18.1----30.51- 47.5 46.0----
2024-04-18 10:48 am N 9.9 19.0----30.51- 47.3 45.9----
2024-04-18 10:42 am N 8.9 19.0----30.51- 47.5 45.9----
2024-04-18 10:36 am N 11.1 18.1----30.51- 47.1 45.9----
2024-04-18 10:30 am N 11.1 17.1----30.51- 47.1 45.9----
2024-04-18 10:24 am N 9.9 15.9----30.51- 47.3 45.9----
2024-04-18 10:18 am N 11.1 20.0----30.51- 47.1 45.9----
2024-04-18 10:12 am N 11.1 19.0----30.51- 46.9 45.9----
2024-04-18 10:06 am N 8.0 15.0----30.51- 47.1 45.9----
2024-04-18 10:00 am N 12.0 19.0----30.51-0.01 46.8 45.9----
2024-04-18 09:54 am N 11.1 18.1----30.51- 46.8 45.9----
2024-04-18 09:48 am N 8.0 17.1----30.51- 46.8 45.9----
2024-04-18 09:42 am N 9.9 17.1----30.51- 46.6 45.9----
2024-04-18 09:36 am N 9.9 17.1----30.51- 46.6 45.9----
2024-04-18 09:30 am N 8.0 15.9----30.51- 46.6 45.9----
2024-04-18 09:24 am N 8.9 15.0----30.51- 46.4 45.9----
2024-04-18 09:18 am N 9.9 17.1----30.52- 46.0 45.9----
2024-04-18 09:12 am N 12.0 17.1----30.52- 45.7 45.9----
2024-04-18 09:06 am N 9.9 17.1----30.52- 45.9 45.9----
2024-04-18 09:00 am N 11.1 19.0----30.52-0.01 45.7 45.9----
2024-04-18 08:54 am N 9.9 15.9----30.52- 45.3 45.9----
2024-04-18 08:48 am N 9.9 19.0----30.52- 45.1 45.9----
2024-04-18 08:42 am N 9.9 21.0----30.52- 45.3 45.7----
2024-04-18 08:36 am N 8.9 19.0----30.52- 45.3 45.9----
2024-04-18 08:30 am N 12.0 19.0----30.52- 45.1 45.9----
2024-04-18 08:24 am N 12.0 20.0----30.52- 45.0 45.9----
2024-04-18 08:18 am N 8.0 17.1----30.52- 45.0 45.9----
2024-04-18 08:12 am N 9.9 15.9----30.52- 44.8 45.9----
2024-04-18 08:06 am N 12.0 21.0----30.52- 44.6 45.9----
2024-04-18 08:00 am N 8.9 15.9----30.52-0.01 44.6 45.9----
2024-04-18 07:54 am N 8.9 18.1----30.52- 44.6 45.9----
2024-04-18 07:48 am N 11.1 15.9----30.52- 44.6 45.9----
2024-04-18 07:42 am N 8.9 15.0----30.52- 44.8 45.9----
2024-04-18 07:36 am N 8.9 20.0----30.52- 44.8 45.9----
2024-04-18 07:30 am N 11.1 17.1----30.52- 45.0 45.9----
2024-04-18 07:24 am N 9.9 15.9----30.52- 45.0 45.9----
2024-04-18 07:18 am N 8.9 13.0----30.53- 45.1 45.9----
2024-04-18 07:12 am N 8.9 15.9----30.53- 45.1 45.9----
2024-04-18 07:06 am N 8.9 14.0----30.52- 45.3 45.7----
2024-04-18 07:00 am N 8.0 13.0----30.53-0.01 45.3 45.9----
2024-04-18 06:54 am N 6.0 14.0----30.53- 45.3 45.9----
2024-04-18 06:48 am N 8.0 14.0------------
2024-04-18 06:42 am N 7.0 13.0------------
2024-04-18 06:36 am N 7.0 13.0------------
2024-04-18 06:30 am N 7.0 12.0----30.53- 45.0 45.9----
2024-04-18 06:24 am N 7.0 11.1----30.53- 44.8 45.9----
2024-04-18 06:18 am N 6.0 9.9----30.53- 44.4 45.7----
2024-04-18 06:12 am N 7.0 9.9----30.53- 44.6 45.7----
2024-04-18 06:06 am N 5.1 9.9----30.53- 44.4 45.7----
2024-04-18 06:00 amNNW 4.1 8.9----30.53-0.01 44.6 45.9----
2024-04-18 05:54 am N 5.1 8.9----30.53- 44.6 45.9----
2024-04-18 05:48 amNNW 4.1 7.0----30.53- 44.2 45.9----
2024-04-18 05:42 amNNW 5.1 9.9----30.53- 44.6 45.9----
2024-04-18 05:36 amNNW 7.0 9.9----30.53- 45.1 45.9----
2024-04-18 05:30 amNNW 5.1 8.0----30.53- 45.0 45.9----
2024-04-18 05:24 amNNW 6.0 8.0----30.53- 45.0 45.7----
2024-04-18 05:18 amNNW 6.0 8.9----30.53- 45.0 45.9----
2024-04-18 05:12 am N 7.0 8.9----30.53- 45.0 45.7----
2024-04-18 05:06 am N 6.0 11.1----30.53- 45.0 46.0----
2024-04-18 05:00 am N 6.0 9.9----30.53+0.00 45.1 45.9----
2024-04-18 04:54 am N 6.0 11.1----30.53- 45.0 46.0----
2024-04-18 04:48 am N 6.0 9.9----30.53- 45.0 45.9----
2024-04-18 04:42 am N 4.1 8.0----30.53- 45.1 45.9----
2024-04-18 04:36 am N 7.0 11.1----30.53- 45.5 46.0----
2024-04-18 04:30 am N 5.1 12.0----30.53- 45.7 46.0----
2024-04-18 04:24 amNNW 7.0 12.0----30.53- 46.0 46.2----
2024-04-18 04:18 am N 5.1 11.1----30.53- 45.5 46.2----
2024-04-18 04:12 am N 6.0 8.9----30.53- 45.5 46.2----
2024-04-18 04:06 am N 6.0 9.9----30.53- 45.7 46.2----
2024-04-18 04:00 am N 4.1 8.9----30.53+0.00 46.0 46.0----
2024-04-18 03:54 amNNW 5.1 8.9----30.53- 46.0 46.0----